Tracking 22879 objects as of 21-Apr-2021
HD Live streaming from Space Station
objects crossing your sky now

MOLNIYA 1-80

Track MOLNIYA 1-80 now!
MOLNIYA 1-80 is classified as:


NORAD ID: 21118
Int'l Code: 1991-012A
Perigee: 1,803.2 km
Apogee: 37,764.6 km
Inclination: 64.9 °
Period: 701.6 minutes
Semi major axis: 26154 km
RCS: 6.3095 m2 (large)
Launch date: February 15, 1991
Source: Commonwealth of Independent States (former USSR) (CIS)
Launch site: PLESETSK MISSILE AND SPACE COMPLEX (PKMTR)
aabbcc
Your satellite tracking list
Your tracking list is empty




NASA's NSSDC Master Catalog

Two Line Element Set (TLE):
1 21118U 91012A   21110.70739447 -.00000824  00000-0  00000-0 0  9997
2 21118  64.8768  20.6374 6874711 282.9733  13.7408  2.05245744222297
Source of the keplerian elements: AFSPC